Location: Bissersheim
(49.5364°N, 8.2022°E)
Time: 09:46:40
(UTC+00:00)

Daily predictions for brighter satellites

Satellite Brightness Start Highest point End
(mag) Time Altitude Azimuth Time Altitude Azimuth Time Altitude Azimuth
Okean O Rocket 2.2 19:35:02 10° SE 19:39:04 41° ENE 19:43:07 10° N
Cosmos 2100 Rocket 4.3 19:34:26 10° SSW 19:40:42 76° W 19:47:03 10° N
Meteor 1-27 4.2 19:36:31 10° S 19:42:06 69° E 19:47:40 10° NNE
Cosmos 2228 3.2 19:38:31 10° SSE 19:42:28 48° E 19:46:26 10° NNE
NOSS 3-4 (A) 4.5 19:36:40 10° NW 19:42:48 45° NE 19:49:59 10° ESE
SPOT 5 4.2 19:39:05 10° SSW 19:43:02 35° W 19:47:07 10° NNW
SL-24 R/B 4.3 19:38:54 10° NNE 19:43:12 87° WNW 19:47:57 10° SSW
SL-16 R/B 2.9 19:37:52 10° NNW 19:43:17 42° NE 19:48:39 10° ESE
NOSS 3-4 (C) 4.5 19:37:17 10° NW 19:43:26 45° NE 19:50:37 10° ESE
USA 186 2.6 19:41:20 10° SE 19:43:41 26° ENE 19:46:05 10° N
Okean 1 Rocket 4.1 19:44:24 10° SSW 19:48:40 50° WNW 19:53:01 10° N
Cosmos 2084 Rocket 3.9 19:46:57 10° NW 19:51:04 56° SW 19:55:13 10° SSE
Cosmos 2233 Rocket 4.1 19:45:07 10° S 19:51:11 60° E 19:57:15 10° NNE
ATLAS 2AS CENTAUR R/B 4.3 19:45:47 10° W 19:52:09 38° NNW 19:58:28 10° NE
SKYMED 3 4.3 19:53:21 10° NNE 19:57:18 75° ESE 20:01:16 10° S
CZ-2C R/B 4.4 19:56:51 10° ENE 19:57:27 10° ENE 19:58:02 10° NE
COSMOS 2406 3.7 19:53:01 10° S 19:58:20 41° ESE 20:03:40 10° NE
Cosmos 1980 Rocket 3.3 19:53:29 10° NW 19:58:49 43° WSW 20:04:08 10° S
Okean-O 2.7 19:55:31 10° SSE 19:59:50 64° ENE 20:04:11 10° N
Cosmos 1782 2.5 19:56:20 10° S 19:59:52 86° WNW 20:03:25 10° N
CZ-4 R/B 2.9 19:57:06 10° SSW 20:00:19 30° W 20:03:35 10° NNW
MetOp-B 4.5 19:55:10 10° S 20:00:30 68° WSW 20:05:52 10° NNW
Ariane Rocket 4.0 19:58:05 10° SE 20:02:33 33° ENE 20:07:03 10° N
Cosmos 1933 4.4 20:02:11 11° SE 20:05:12 26° E 20:08:24 10° NNE
SPOT 3 Rocket 4.1 20:01:10 10° SE 20:05:57 43° ENE 20:10:48 10° N
Cosmos 1758 Rocket 3.9 20:02:13 10° N 20:06:32 51° ENE 20:10:37 11° SSE
Spot 2 Rocket 3.5 20:02:47 10° SSE 20:07:48 84° ENE 20:12:52 10° NNW
Cosmos 1725 Rocket 4.3 20:03:39 10° SSW 20:09:54 74° W 20:16:09 10° N
Cosmos 2333 Rocket 2.5 20:05:34 10° NNW 20:11:13 58° NE 20:16:16 13° SE
ERS-1 Rocket 4.0 20:09:12 10° S 20:13:58 44° W 20:18:46 10° NNW
Tsikada Rocket 4.1 20:12:10 10° NNW 20:18:21 79° W 20:24:29 10° S
Cosmos 2016 Rocket 4.5 20:18:21 10° SSW 20:24:33 63° WNW 20:30:41 10° N
Cosmos 2360 Rocket 2.8 20:19:36 10° NNW 20:25:05 46° NE 20:29:39 14° ESE
USA 245 4.4 20:19:40 12° SSE 20:25:06 68° ENE 20:30:36 10° N
Cosmos 1461 2.7 20:22:40 10° SSW 20:26:14 47° ESE 20:29:48 10° NE
CZ-4B R/B 4.2 20:21:39 10° S 20:27:03 45° W 20:32:26 10° NNW
CZ-4B R/B 3.7 20:25:36 15° SE 20:29:22 54° ENE 20:34:07 10° N
CZ-4C R/B 3.7 20:26:02 10° W 20:30:15 36° NNW 20:35:39 10° NE
Cosmos 1602 Rocket 3.8 20:26:31 10° N 20:30:45 51° ENE 20:33:50 18° SSE
Cosmos 1992 Rocket 4.0 20:25:41 10° SSW 20:30:54 88° WNW 20:36:08 10° NNE
YAOGAN 11 4.1 20:29:33 10° NNE 20:34:01 90° NNW 20:38:29 10° SSW
ISS -3.2 20:33:52 10° W 20:37:11 59° N 20:40:30 10° ENE
Cosmos 1777 Rocket 4.4 20:32:18 10° NNW 20:37:27 53° ENE 20:41:09 18° SE
Cosmos 2219 Rocket 3.1 20:33:09 10° NNW 20:38:27 38° NE 20:42:48 14° ESE
Meteor 1-25 Rocket 4.3 20:33:44 10° N 20:39:25 70° ENE 20:43:46 17° SSE
Cosmos 220 Rocket 4.1 20:36:01 12° S 20:39:30 46° ESE 20:43:26 10° NE
Cosmos 1437 Rocket 2.4 20:36:40 13° S 20:39:44 68° E 20:43:19 10° NNE
USA 290 3.7 20:39:46 19° ESE 20:39:50 19° ESE 20:42:08 10° NE
SL-08 R/B 4.2 20:39:34 10° N 20:44:15 52° WNW 20:48:50 10° SW
Cosmos 1503 Rocket 4.5 20:40:54 10° NNW 20:45:57 48° ENE 20:49:23 19° SE
DEBRIS 3.5 20:43:43 10° W 20:46:56 88° S 20:57:11 10° E
Cosmos 1626 Rocket 4.0 20:42:48 10° NNW 20:47:06 59° W 20:51:00 12° S
Cosmos 2098 Rocket 3.5 20:44:23 18° SSE 20:47:39 47° E 20:51:40 10° NNE
NOSS 3-3 (A) 4.1 20:44:15 10° SW 20:49:30 68° NW 20:55:53 10° NE
Terra 3.9 20:48:09 10° SW 20:51:48 22° W 20:55:28 10° NW
Cosmos 2151 3.2 20:51:03 10° NNW 20:55:07 64° W 20:58:09 17° S
Cosmos 2322 Rocket 2.2 20:51:18 10° NNW 20:57:00 78° ENE 21:00:46 22° SE
Cosmos 1486 Rocket 4.0 20:51:50 10° NNW 20:57:08 83° ENE 21:00:35 22° SSE
Cosmos 1513 Rocket 4.4 20:51:10 10° S 20:57:22 80° E 21:03:30 10° NNE
IRS-1C Rocket 4.1 20:53:40 19° SSE 20:57:33 89° ENE 21:02:51 10° NNW
Cosmos 1464 Rocket 4.1 20:53:50 17° SSE 20:58:32 58° E 21:04:35 10° NNE
Cosmos 909 Rocket 4.5 20:53:36 10° SW 20:59:51 67° NW 21:06:27 10° NE
Cosmos 2082 Rocket 3.6 20:56:05 10° WSW 21:01:29 41° NW 21:06:53 10° NNE
USA 306 3.7 21:01:13 10° WNW 21:03:30 23° NNW 21:04:50 12° NE
Cosmos 1606 Rocket 3.7 21:03:17 25° SSE 21:05:33 53° E 21:09:46 10° NNE
Meteor 2-10 4.3 20:59:48 10° N 21:05:34 74° ENE 21:09:14 23° SSE
CZ-4B R/B 3.3 21:09:42 21° SSW 21:11:37 43° W 21:14:56 10° NNW
Cosmos 1766 4.3 21:09:48 10° NNE 21:12:25 22° ENE 21:13:02 21° E
USA 186 4.1 21:11:31 10° SW 21:13:06 14° W 21:14:42 10° WNW
Cosmos 1726 Rocket 3.7 21:12:34 31° SE 21:14:03 45° E 21:17:55 10° NNE
Cosmos 2237 Rocket 4.5 21:10:45 10° N 21:14:24 17° NE 21:18:02 10° ENE
Cosmos 1428 Rocket 4.5 21:09:01 10° N 21:15:17 74° E 21:19:09 24° SSE
Okean O Rocket 3.5 21:11:57 10° SSW 21:15:24 23° W 21:18:53 10° NW
Cosmos 540 Rocket 3.9 21:13:17 26° SSE 21:15:35 41° ESE 21:20:24 10° NE
Cosmos 1072 Rocket 4.5 21:11:32 16° S 21:16:44 83° E 21:23:07 10° N
Cosmos 1805 3.2 21:17:54 10° NNW 21:21:07 55° W 21:22:21 32° SSW
Cosmos 2278 4.2 21:17:22 10° NW 21:22:55 53° WSW 21:26:23 22° S
Meteor 1-5 Rocket 4.4 21:19:50 10° NNW 21:25:35 74° W 21:29:21 23° S
COSMOS 2428 4.0 21:21:06 10° NNW 21:26:13 33° NE 21:30:13 15° ESE
SL-16 R/B 3.2 21:22:06 10° NW 21:27:20 39° WSW 21:30:55 19° SSW
CZ-2C R/B 2.7 21:27:14 36° SW 21:27:49 42° W 21:30:30 10° NNW
Okean 1-7 Rocket 3.8 21:23:48 10° NNW 21:28:15 70° W 21:30:35 28° S
Geosat 4.3 21:28:32 10° NE 21:33:20 44° ESE 21:35:08 31° SSE
NOSS 3-4 (A) 4.0 21:27:23 10° NW 21:34:02 63° SW 21:38:39 26° SSE
NOSS 3-4 (C) 4.0 21:28:01 10° NW 21:34:41 64° SW 21:39:17 26° SSE
Cosmos-2242 3.4 21:34:03 36° SE 21:35:02 43° E 21:38:57 10° NNE
Cosmos 2034 Rocket 4.0 21:32:54 24° S 21:36:55 74° E 21:43:15 10° NNE
Ariane Rocket 4.0 21:38:06 19° SSW 21:41:20 40° W 21:46:07 10° NNW
USA 234 4.4 21:42:25 10° ENE 21:47:10 22° ESE 21:47:10 22° ESE
TSX-5 4.2 21:46:30 10° NNW 21:49:28 38° NE 21:50:06 34° E
Nadezhda 4 Rocket 4.4 21:46:24 10° NNW 21:52:22 55° W 21:56:13 22° SSW
Cosmos 2333 Rocket 3.7 21:50:24 10° NW 21:55:08 28° WSW 21:58:17 17° SSW
Helios 1B rocket 2.3 21:55:11 49° ESE 21:55:41 55° ENE 21:59:08 10° N
Cosmos 1763 Rocket 3.5 21:53:12 22° SSW 21:56:39 86° WNW 22:01:57 10° NNE
Cosmos 1825 Rocket 4.4 21:53:17 10° NNW 21:57:22 41° W 21:59:17 26° SW
Okean 1 3.8 21:56:18 29° SW 21:57:42 47° WNW 22:01:12 10° N
Cosmos 1470 3.5 21:55:06 10° N 21:58:04 30° ENE 21:58:12 30° ENE
Cosmos 1536 2.6 21:54:58 10° N 21:58:39 68° E 21:59:12 56° SE
Cosmos 1707 2.2 21:59:51 63° NNE 21:59:51 63° NNE 22:02:19 10° NNE
Cosmos 2221 3.7 21:59:07 25° E 21:59:29 25° E 22:02:55 10° NNE
Cosmos 1898 Rocket 4.1 21:54:42 10° NNW 21:59:44 49° ENE 22:02:03 29° ESE
Cosmos 1634 Rocket 4.0 21:57:45 32° SSE 22:00:36 64° E 22:06:44 10° NNE
CSL-04 DEB 4.3 22:01:35 49° ESE 22:02:08 56° ENE 22:05:42 10° N
Cosmos 1833 4.2 21:57:58 19° SSW 22:02:10 86° WNW 22:07:51 10° NNE
Cosmos 2297 Rocket 3.8 22:01:44 17° ESE 22:02:14 17° E 22:05:44 10° ENE
Cosmos 1953 Rocket 3.8 21:59:14 10° NNW 22:03:32 61° W 22:04:56 39° SSW
CZ-2C R/B 4.4 21:59:25 10° NNE 22:03:35 36° E 22:04:14 34° ESE
Cosmos 44 3.4 21:59:26 10° NW 22:04:53 86° SW 22:06:56 39° SSE
Cosmos 990 Rocket 4.3 21:59:51 10° NNW 22:04:56 58° WSW 22:06:54 35° S
Cosmos 2360 Rocket 3.2 22:03:50 10° NW 22:08:57 36° WSW 22:11:23 25° SSW
Cosmos 2322 3.9 22:05:30 10° NNW 22:11:12 67° ENE 22:13:46 33° SE
USA 290 4.0 22:12:10 18° WSW 22:13:46 28° WNW 22:16:34 10° N
ISS -3.8 22:10:48 10° WNW 22:14:10 81° NNE 22:14:19 77° ENE
Cosmos 2026 Rocket 4.2 22:08:44 10° NNW 22:15:03 65° W 22:18:17 30° SSW
BREEZE-M DEB (TANK) 4.0 22:13:01 10° W 22:13:11 11° W 22:13:11 11° W
Cosmos 2058 Rocket 3.0 22:14:25 46° SSW 22:15:40 84° W 22:20:01 10° N
Helios 1A 3.0 22:17:31 10° N 22:21:25 65° WNW 22:22:30 43° SW
Cosmos 2219 Rocket 2.8 22:17:06 10° NW 22:22:27 44° WSW 22:24:29 32° SSW
Cosmos 1975 2.9 22:21:34 10° N 22:25:10 51° ENE 22:25:24 50° E
KORONAS-FOTON 3.4 22:25:06 76° W 22:25:10 77° W 22:28:35 10° N
Cosmos 841 Rocket 3.8 22:28:15 42° SE 22:29:21 49° ESE 22:34:24 10° NNE
RESURS DK-1 2.2 22:28:03 10° NNW 22:32:03 79° ENE 22:32:35 64° SE
ARIANE 5 R/B 2.6 22:32:16 52° SE 22:33:17 77° ENE 22:37:46 10° NNW
ALOS 2 2.7 22:33:58 49° SE 22:34:57 66° ENE 22:39:20 10° N
Cosmos 2322 Rocket 4.0 22:36:26 10° NW 22:40:22 20° W 22:42:34 16° SW
Cosmos 1271 Rocket 2.5 22:46:13 71° WNW 22:46:13 71° WNW 22:49:31 10° N
Cosmos 372 Rocket 4.2 22:41:39 10° NNW 22:46:39 56° WSW 22:47:53 44° SSW
SL-16 R/B 4.3 22:42:40 10° N 22:47:02 22° NE 22:51:22 10° E
Cosmos 1842 3.3 22:47:39 51° WNW 22:47:39 51° WNW 22:50:32 10° N
Lacrosse 4 Rocket 3.3 22:51:57 17° E 22:51:57 17° E 22:53:49 10° ENE
Spot 4 3.8 22:51:57 51° S 22:53:04 72° WSW 22:57:52 10° NNW
Meteor 2-9 Rocket 4.1 22:48:50 10° NNW 22:54:14 75° W 22:55:56 45° S
PSLV R/B 3.6 22:51:09 10° NNE 22:55:26 65° ESE 22:55:59 58° SE
Cosmos 2237 Rocket 2.5 22:54:01 10° NNW 22:59:40 62° ENE 23:02:17 32° SE
CZ-2C R/B 3.2 22:58:57 31° ESE 23:01:05 48° ENE 23:06:04 10° N
BREEZE-M DEB (TANK) 4.1 22:46:08 10° WSW 23:01:37 86° SSE 23:05:25 10° ENE
Cosmos 1980 3.8 22:58:11 10° NNW 23:03:50 70° ENE 23:06:13 36° SE
ARGOS Delta rocket 4.0 22:59:41 10° N 23:04:52 86° WNW 23:06:31 46° SSW
Cosmos 858 Rocket 4.4 23:00:01 10° NNW 23:05:13 84° ENE 23:06:42 48° SSE
Cosmos 2142 Rocket 4.5 23:05:17 39° SSW 23:07:50 82° W 23:14:06 10° N
Cosmos 1937 Rocket 3.5 23:03:11 10° NNW 23:08:18 67° WSW 23:09:27 51° SSW
Cosmos 2180 Rocket 4.5 23:06:36 39° SSW 23:09:07 83° W 23:15:30 10° N
COSMOS 2428 2.9 23:05:11 10° NW 23:10:45 54° WSW 23:12:11 43° SSW
Cosmos 2227 Rocket 3.5 23:11:04 24° ESE 23:12:04 25° ESE 23:16:36 10° NE
Meteor 2-4 Rocket 4.2 23:11:49 36° SE 23:13:18 44° E 23:18:30 10° NNE
NOSS 0 Rocket 3.9 23:07:17 10° NW 23:13:25 68° WSW 23:15:26 43° S
Meteor 1-11 Rocket 3.6 23:08:22 10° NNW 23:14:04 79° W 23:15:45 46° S
MetOp-A 3.7 23:18:10 53° SSE 23:19:20 90° ESE 23:24:03 10° NNW
Meteor 1-10 Rocket 4.3 23:17:23 42° SSW 23:19:31 85° WNW 23:25:30 10° N
Cosmos 2263 Rocket 3.8 23:20:54 18° ESE 23:22:03 19° E 23:25:52 10° ENE
Cosmos 1812 Rocket 3.9 23:25:18 49° WSW 23:26:09 59° WNW 23:30:32 10° N
Cosmos 1238 Rocket 3.0 23:25:54 57° ESE 23:26:11 58° E 23:30:27 10° NNE
USA 234 3.2 23:24:37 10° ENE 23:31:09 69° SE 23:34:30 31° SW
SeaSat 1 3.1 23:28:37 24° ESE 23:31:19 51° NE 23:36:04 10° NNW
CZ-2C R/B 3.3 23:28:00 10° NNE 23:33:48 84° ESE 23:35:48 44° S
Meteor 1-27 Rocket 3.7 23:32:34 45° S 23:34:31 85° E 23:40:17 10° NNE
ACS3 Solar Sail 2.7 23:29:34 10° NNE 23:34:59 34° E 23:37:20 26° SE
Cosmos 2221 3.6 23:35:23 30° W 23:36:21 34° WNW 23:40:12 10° N
ATLAS 2AS CENTAUR R/B 4.3 23:31:44 10° NW 23:37:51 34° NNE 23:43:57 10° E
Meteor 2-20 Rocket 4.2 23:37:28 44° S 23:39:21 80° E 23:45:05 10° NNE
BlueWalker 3 3.5 23:41:18 22° E 23:41:18 22° E 23:42:49 10° ENE
Cosmos 2297 Rocket 2.1 23:43:29 42° SSW 23:45:29 87° WNW 23:51:11 10° NNE
Okean 3 Rocket 4.4 23:43:32 10° N 23:47:54 46° ENE 23:49:21 34° ESE
Landsat 5 3.4 23:47:14 10° NNE 23:51:19 64° ESE 23:51:40 61° SE
Cosmos 1842 Rocket 3.6 23:53:33 54° SE 23:54:17 65° E 23:58:40 10° NNE
GP-B 3.8 23:51:08 10° NNW 23:55:13 39° W 23:56:01 36° WSW
